When you browse on this site, cookies collect data to enhance your experience and personalize the content and advertising you see.
Visit our Privacy Policy to learn more. By continuing to use the site, you agree to this use of cookies and data.
  • In Hungary
  • List of Countries
  • For 7 days
  • Water Temperature
  • Weather Map
  • News
  • Weather Widgets
  • user-avatar
    Login

    Hourly Weather Pyrzowice

    Today, 16 September, Monday

    Time Temperature Precipitation Wind Pressure Humidity
    00:00 +15°C° 0 mm 4 mps 737 mmHg 73%
    01:00 +14°C° 0 mm 3 mps 737 mmHg 77%
    02:00 +14°C° 0 mm 3 mps 736 mmHg 77%
    03:00 +14°C° 0 mm 3 mps 736 mmHg 77%
    04:00 +14°C° 0 mm 3 mps 736 mmHg 77%
    05:00 +14°C° 0 mm 3 mps 736 mmHg 75%
    06:00 +14°C° 0 mm 3 mps 736 mmHg 74%
    07:00 +14°C° 0 mm 3 mps 736 mmHg 73%
    08:00 +14°C° 0 mm 3 mps 736 mmHg 73%
    09:00 +16°C° 0 mm 3 mps 736 mmHg 72%
    10:00 +16°C° 0 mm 3 mps 736 mmHg 72%
    11:00 +17°C° 0 mm 3 mps 736 mmHg 68%
    12:00 +17°C° 0 mm 4 mps 736 mmHg 64%
    13:00 +18°C° 0 mm 4 mps 736 mmHg 60%
    14:00 +17°C° 0 mm 4 mps 736 mmHg 63%
    15:00 +16°C° 0 mm 3 mps 735 mmHg 66%
    16:00 +16°C° 0 mm 3 mps 735 mmHg 69%
    17:00 +14°C° 0.1 mm 3 mps 735 mmHg 73%
    18:00 +14°C° 0.1 mm 2 mps 735 mmHg 76%
    19:00 +13°C° 0.1 mm 2 mps 735 mmHg 79%
    20:00 +12°C° 0.3 mm 3 mps 735 mmHg 83%
    21:00 +12°C° 0.3 mm 3 mps 734 mmHg 86%
    22:00 +11°C° 0.3 mm 3 mps 734 mmHg 89%
    23:00 +11°C° 0.1 mm 3 mps 734 mmHg 89%

    Tomorrow, 17 September, Tuesday

    Time Temperature Precipitation Wind Pressure Humidity
    00:00 +11°C° 0.1 mm 3 mps 734 mmHg 89%
    01:00 +11°C° 0.1 mm 3 mps 734 mmHg 88%
    02:00 +11°C° 0 mm 3 mps 734 mmHg 89%
    03:00 +10°C° 0 mm 3 mps 734 mmHg 89%
    04:00 +10°C° 0 mm 3 mps 733 mmHg 89%
    05:00 +10°C° 0 mm 3 mps 734 mmHg 86%
    06:00 +10°C° 0 mm 3 mps 734 mmHg 83%
    07:00 +11°C° 0 mm 3 mps 734 mmHg 80%
    08:00 +11°C° 0 mm 4 mps 734 mmHg 75%
    09:00 +12°C° 0 mm 5 mps 734 mmHg 70%
    10:00 +13°C° 0 mm 6 mps 734 mmHg 64%
    11:00 +13°C° 0 mm 6 mps 733 mmHg 63%
    12:00 +13°C° 0 mm 6 mps 733 mmHg 61%
    13:00 +13°C° 0 mm 6 mps 732 mmHg 59%
    14:00 +13°C° 0 mm 6 mps 732 mmHg 58%
    15:00 +13°C° 0 mm 6 mps 732 mmHg 57%
    16:00 +13°C° 0 mm 6 mps 731 mmHg 56%
    17:00 +11°C° 0.1 mm 6 mps 731 mmHg 60%
    18:00 +10°C° 0.1 mm 6 mps 732 mmHg 64%
    19:00 +10°C° 0.1 mm 6 mps 732 mmHg 68%
    20:00 +9°C° 0.9 mm 6 mps 732 mmHg 71%
    21:00 +8°C° 0.9 mm 7 mps 732 mmHg 75%
    22:00 +6°C° 0.9 mm 7 mps 732 mmHg 78%
    23:00 +6°C° 0.1 mm 7 mps 733 mmHg 79%

    Day after tomorrow, 18 September, Wednesday

    Time Temperature Precipitation Wind Pressure Humidity
    00:00 +5°C° 0.1 mm 7 mps 733 mmHg 80%
    01:00 +5°C° 0.1 mm 7 mps 733 mmHg 81%
    02:00 +4°C° 0 mm 7 mps 734 mmHg 80%
    03:00 +4°C° 0 mm 7 mps 734 mmHg 80%
    04:00 +4°C° 0 mm 7 mps 735 mmHg 80%
    05:00 +4°C° 0 mm 7 mps 735 mmHg 79%
    06:00 +4°C° 0 mm 6 mps 736 mmHg 79%
    07:00 +5°C° 0 mm 6 mps 737 mmHg 78%
    08:00 +7°C° 0 mm 6 mps 737 mmHg 72%
    09:00 +8°C° 0 mm 6 mps 738 mmHg 65%
    10:00 +10°C° 0 mm 6 mps 738 mmHg 59%
    11:00 +11°C° 0 mm 6 mps 738 mmHg 55%
    12:00 +11°C° 0 mm 6 mps 738 mmHg 51%
    13:00 +13°C° 0 mm 6 mps 738 mmHg 47%
    14:00 +13°C° 0 mm 6 mps 738 mmHg 50%
    15:00 +11°C° 0 mm 6 mps 738 mmHg 53%
    16:00 +11°C° 0 mm 7 mps 737 mmHg 56%
    17:00 +10°C° 0 mm 6 mps 738 mmHg 58%
    18:00 +9°C° 0 mm 5 mps 738 mmHg 60%
    19:00 +8°C° 0 mm 4 mps 738 mmHg 62%
    20:00 +8°C° 0 mm 4 mps 739 mmHg 64%
    21:00 +9°C° 0 mm 3 mps 739 mmHg 65%
    22:00 +8°C° 0 mm 3 mps 739 mmHg 66%
    23:00 +8°C° 0 mm 3 mps 739 mmHg 68%

    19 September, Thursday

    Time Temperature Precipitation Wind Pressure Humidity
    00:00 +8°C° 0 mm 3 mps 739 mmHg 69%
    01:00 +8°C° 0 mm 3 mps 739 mmHg 70%
    02:00 +8°C° 0.1 mm 3 mps 739 mmHg 71%
    03:00 +7°C° 0.1 mm 3 mps 739 mmHg 73%
    04:00 +7°C° 0.1 mm 3 mps 739 mmHg 74%
    05:00 +6°C° 0 mm 4 mps 739 mmHg 72%
    06:00 +7°C° 0 mm 4 mps 739 mmHg 70%
    07:00 +7°C° 0 mm 4 mps 739 mmHg 68%
    08:00 +8°C° 0 mm 5 mps 740 mmHg 66%
    09:00 +9°C° 0 mm 5 mps 740 mmHg 65%
    10:00 +10°C° 0 mm 5 mps 741 mmHg 63%
    11:00 +12°C° 0.2 mm 5 mps 741 mmHg 59%
    12:00 +12°C° 0.2 mm 5 mps 741 mmHg 55%
    13:00 +13°C° 0.2 mm 5 mps 741 mmHg 50%
    14:00 +13°C° 0 mm 5 mps 741 mmHg 49%
    15:00 +13°C° 0 mm 5 mps 741 mmHg 49%
    16:00 +13°C° 0 mm 6 mps 741 mmHg 48%
    17:00 +12°C° 0 mm 5 mps 741 mmHg 53%
    18:00 +10°C° 0 mm 4 mps 741 mmHg 58%
    19:00 +9°C° 0 mm 3 mps 742 mmHg 63%
    20:00 +9°C° 0 mm 3 mps 742 mmHg 65%
    21:00 +8°C° 0 mm 3 mps 743 mmHg 68%
    22:00 +7°C° 0 mm 2 mps 743 mmHg 70%
    23:00 +7°C° 0 mm 2 mps 743 mmHg 73%

    20 September, Friday

    Time Temperature Precipitation Wind Pressure Humidity
    00:00 +6°C° 0 mm 2 mps 743 mmHg 75%
    01:00 +7°C° 0 mm 1 mps 743 mmHg 77%
    02:00 +7°C° 0 mm 1 mps 743 mmHg 79%
    03:00 +6°C° 0 mm 1 mps 744 mmHg 80%
    04:00 +6°C° 0 mm 1 mps 744 mmHg 82%
    05:00 +6°C° 0 mm 1 mps 744 mmHg 79%
    06:00 +6°C° 0 mm 2 mps 744 mmHg 76%
    07:00 +6°C° 0 mm 2 mps 744 mmHg 73%
    08:00 +8°C° 0 mm 2 mps 744 mmHg 64%
    09:00 +10°C° 0 mm 2 mps 745 mmHg 55%
    10:00 +11°C° 0 mm 3 mps 745 mmHg 46%
    11:00 +12°C° 0 mm 3 mps 745 mmHg 46%
    12:00 +13°C° 0 mm 3 mps 745 mmHg 45%
    13:00 +13°C° 0 mm 3 mps 744 mmHg 44%
    14:00 +13°C° 0.1 mm 3 mps 744 mmHg 46%
    15:00 +13°C° 0.1 mm 3 mps 744 mmHg 47%
    16:00 +13°C° 0.1 mm 3 mps 744 mmHg 49%
    17:00 +12°C° 0 mm 2 mps 744 mmHg 53%
    18:00 +11°C° 0 mm 1 mps 744 mmHg 58%
    19:00 +10°C° 0 mm 1 mps 745 mmHg 63%
    20:00 +10°C° 0 mm 1 mps 745 mmHg 64%
    21:00 +8°C° 0 mm 0 mps 745 mmHg 65%
    22:00 +8°C° 0 mm 0 mps 745 mmHg 66%
    23:00 +8°C° 0 mm 0 mps 745 mmHg 66%

    21 September, Saturday

    Time Temperature Precipitation Wind Pressure Humidity
    00:00 +9°C° 0 mm 1 mps 745 mmHg 67%
    01:00 +8°C° 0 mm 1 mps 745 mmHg 68%
    02:00 +8°C° 0 mm 1 mps 745 mmHg 69%
    03:00 +8°C° 0 mm 1 mps 745 mmHg 70%
    04:00 +7°C° 0 mm 1 mps 745 mmHg 71%
    05:00 +8°C° 0 mm 1 mps 745 mmHg 68%
    06:00 +9°C° 0 mm 1 mps 745 mmHg 66%
    07:00 +9°C° 0 mm 1 mps 745 mmHg 63%
    08:00 +11°C° 0 mm 1 mps 745 mmHg 56%
    09:00 +13°C° 0 mm 2 mps 746 mmHg 50%
    10:00 +15°C° 0 mm 2 mps 746 mmHg 43%
    11:00 +16°C° 0 mm 2 mps 745 mmHg 40%
    12:00 +16°C° 0 mm 2 mps 745 mmHg 37%
    13:00 +17°C° 0 mm 2 mps 745 mmHg 34%
    14:00 +17°C° 0 mm 2 mps 744 mmHg 35%
    15:00 +17°C° 0 mm 2 mps 744 mmHg 37%
    16:00 +18°C° 0 mm 1 mps 744 mmHg 38%
    17:00 +15°C° 0 mm 1 mps 744 mmHg 42%
    18:00 +14°C° 0 mm 2 mps 744 mmHg 47%
    19:00 +12°C° 0 mm 2 mps 744 mmHg 51%
    20:00 +12°C° 0 mm 2 mps 744 mmHg 53%
    21:00 +10°C° 0 mm 2 mps 744 mmHg 55%
    22:00 +10°C° 0 mm 2 mps 744 mmHg 57%
    23:00 +10°C° 0 mm 2 mps 744 mmHg 58%
    Show more